| time (UTC) | temp F | wind direction | speed knots | gust knots | rain 1hr in | rain 24hr in | rain mn in | humidity % | barometer mb |
| 20260504204517 | 51 | 295 | 4.3 | 9.6 | 0.00 | 0.00 | 0.00 | 41 | 1015.3 |
| 20260504203012 | 50 | 312 | 5.2 | 8.7 | 0.00 | 0.00 | 0.00 | 42 | 1015.4 |
| 20260504201515 | 49 | 309 | 3.5 | 7.8 | 0.00 | 0.00 | 0.00 | 44 | 1015.6 |
| 20260504200026 | 49 | 311 | 3.5 | 8.7 | 0.00 | 0.00 | 0.00 | 44 | 1015.7 |
| 20260504194523 | 49 | 305 | 5.2 | 9.6 | 0.00 | 0.00 | 0.00 | 44 | 1015.7 |
| 20260504193023 | 50 | 332 | 6.1 | 9.6 | 0.00 | 0.00 | 0.00 | 41 | 1015.6 |
| 20260504191526 | 50 | 308 | 5.2 | 9.6 | 0.00 | 0.00 | 0.00 | 40 | 1015.7 |
| 20260504190017 | 50 | 328 | 6.1 | 9.6 | 0.00 | 0.00 | 0.00 | 40 | 1015.7 |
| 20260504184519 | 49 | 313 | 3.5 | 8.7 | 0.00 | 0.00 | 0.00 | 41 | 1015.7 |
| 20260504183024 | 49 | 300 | 5.2 | 7.8 | 0.00 | 0.00 | 0.00 | 40 | 1015.7 |
| 20260504181526 | 49 | 346 | 3.5 | 6.1 | 0.00 | 0.00 | 0.00 | 41 | 1015.8 |
| 20260504180018 | 49 | 296 | 2.6 | 7.0 | 0.00 | 0.00 | 0.00 | 45 | 1015.8 |
| 20260504174526 | 48 | 238 | 2.6 | 7.0 | 0.00 | 0.00 | 0.00 | 49 | 1015.8 |
| 20260504173019 | 48 | 265 | 4.3 | 7.0 | 0.00 | 0.00 | 0.00 | 48 | 1015.7 |
| 20260504171530 | 48 | 259 | 5.2 | 7.8 | 0.00 | 0.00 | 0.00 | 48 | 1015.7 |
| 20260504081519 | 45 | 63 | 1.7 | 4.3 | 0.00 | 0.00 | 0.00 | 52 | 1011.4 |
| 20260504050004 | 50 | 298 | 0.9 | 5.2 | 0.00 | 0.00 | 0.00 | 45 | 1010.1 |
| 20260504044511 | 51 | 283 | 1.7 | 3.5 | 0.00 | 0.00 | 0.00 | 44 | 1010.2 |
| 20260504043005 | 52 | 299 | 1.7 | 3.5 | 0.00 | 0.00 | 0.00 | 43 | 1010.1 |
| 20260504041510 | 53 | 280 | 1.7 | 3.5 | 0.00 | 0.00 | 0.00 | 40 | 1010.1 |
| 20260504040010 | 55 | 253 | 0.0 | 3.5 | 0.00 | 0.00 | 0.00 | 37 | 1010.0 |
| 20260504034516 | 55 | 255 | 0.9 | 2.6 | 0.00 | 0.00 | 0.00 | 36 | 1009.7 |
| 20260504033003 | 53 | 9 | 0.0 | 0.9 | 0.00 | 0.00 | 0.00 | 39 | 1009.6 |
| 20260504031507 | 56 | 35 | 0.9 | 2.6 | 0.00 | 0.00 | 0.00 | 35 | 1009.5 |
| 20260504030010 | 58 | 294 | 0.9 | 2.6 | 0.00 | 0.00 | 0.00 | 34 | 1009.3 |
| 20260504024514 | 58 | 274 | 0.9 | 3.5 | 0.00 | 0.00 | 0.00 | 34 | 1009.2 |
| 20260504023019 | 62 | 314 | 0.9 | 7.0 | 0.00 | 0.00 | 0.00 | 30 | 1009.2 |
| 20260504021509 | 64 | 4 | 0.9 | 3.5 | 0.00 | 0.00 | 0.00 | 29 | 1009.3 |
| 20260504020005 | 67 | 335 | 3.5 | 10.4 | 0.00 | 0.00 | 0.00 | 26 | 1009.1 |
| 20260504014523 | 67 | 5 | 3.5 | 7.0 | 0.00 | 0.00 | 0.00 | 26 | 1009.3 |
| 20260504013016 | 68 | 24 | 3.5 | 9.6 | 0.00 | 0.00 | 0.00 | 25 | 1009.3 |
| 20260504011518 | 69 | 28 | 4.3 | 13.0 | 0.00 | 0.00 | 0.00 | 24 | 1009.4 |
| 20260504010004 | 70 | 29 | 6.1 | 10.4 | 0.00 | 0.00 | 0.00 | 24 | 1009.6 |
| 20260504004508 | 70 | 5 | 6.1 | 13.0 | 0.00 | 0.00 | 0.00 | 26 | 1009.4 |
| 20260504003012 | 72 | 15 | 5.2 | 11.3 | 0.00 | 0.00 | 0.00 | 23 | 1009.6 |
| 20260504001522 | 72 | 360 | 6.1 | 10.4 | 0.00 | 0.00 | 0.00 | 22 | 1009.7 |
| 20260504000022 | 72 | 7 | 5.2 | 10.4 | 0.00 | 0.00 | 0.00 | 24 | 1009.8 |
| 20260503234506 | 72 | 338 | 3.5 | 10.4 | 0.00 | 0.00 | 0.00 | 24 | 1009.8 |
| 20260503233009 | 71 | 14 | 3.5 | 7.0 | 0.00 | 0.00 | 0.00 | 25 | 1009.7 |
| 20260503231524 | 70 | 333 | 3.5 | 7.8 | 0.00 | 0.00 | 0.00 | 25 | 1009.8 |
| 20260503230026 | 70 | 5 | 3.5 | 7.0 | 0.00 | 0.00 | 0.00 | 26 | 1009.9 |
| 20260503224523 | 71 | 15 | 3.5 | 10.4 | 0.00 | 0.00 | 0.00 | 25 | 1010.0 |
| 20260503223007 | 70 | 8 | 4.3 | 9.6 | 0.00 | 0.00 | 0.00 | 26 | 1010.0 |
| 20260503221512 | 71 | 299 | 7.0 | 13.0 | 0.00 | 0.00 | 0.00 | 22 | 1010.1 |
| 20260503220015 | 72 | 289 | 9.6 | 16.5 | 0.00 | 0.00 | 0.00 | 21 | 1010.4 |
| 20260503214520 | 73 | 295 | 8.7 | 16.5 | 0.00 | 0.00 | 0.00 | 23 | 1010.6 |
| 20260503213029 | 73 | 273 | 10.4 | 18.2 | 0.00 | 0.00 | 0.00 | 21 | 1010.8 |
| 20260503211509 | 72 | 278 | 9.6 | 17.4 | 0.00 | 0.00 | 0.00 | 22 | 1010.8 |
| 20260503210016 | 72 | 239 | 7.0 | 13.0 | 0.00 | 0.00 | 0.00 | 21 | 1011.1 |